Regional Weather Roundup
Issued by NWS

Home | Current Version | Previous Version | Graphics & Text | Print | Product List | Glossary On
Versions: 1 2 3 4 5 6 7 8 9 10 11 12 13 14 15 16 17 18 19 20 21 22 23 24 25 26
000
ASUS45 KSLC 270510
RWRUT

UTAH REGIONAL WEATHER ROUNDUP
NATIONAL WEATHER SERVICE SALT LAKE CITY UT
1100 PM MDT WED JUL 26 2017

UTZ001>011-023>025-270600-

NORTHERN UTAH

CITY           SKY/WX    TMP DP  RH WIND       PRES   REMARKS
BRIGHAM CITY   CLOUDY    71  52  49 CALM      30.15S
HILL AFB       LGT RAIN  66  61  82 E18G26    30.20R
LOGAN          MOCLDY    69  55  60 SE8       30.18R
OGDEN          LGT RAIN  69  61  75 SE12G25   30.18R
SALT LAKE CITY TSTM      70  64  81 E15       30.19R
TOOELE VALLEY  CLOUDY    70  59  68 E3        30.17F
WENDOVER       PTCLDY    71  54  54 W7        30.17R
HEBER CITY     LGT RAIN  68  54  60 SW17      30.26R
WEST JORDAN    CLOUDY    66  66 100 NE8G17    30.24R

$$

UTZ011>015-024>027-270600-

CENTRAL/NORTHEAST UTAH

CITY           SKY/WX    TMP DP  RH WIND       PRES   REMARKS
PROVO AIRPORT  CLOUDY    69  60  73 E12       30.21R
MOAB/CANYONLAN CLEAR     76  65  68 CALM      30.11S
DELTA          PTCLDY    68  54  60 CALM      30.20S
PRICE          PTCLDY    70  61  73 NE5       30.25R
ROOSEVELT      CLEAR     66  59  77 SW6       30.22S
VERNAL         CLEAR     69  56  62 W5        30.21R

$$

UTZ013>016-019>022-027-270600-

SOUTHERN UTAH

CITY           SKY/WX    TMP DP  RH WIND       PRES   REMARKS
BRYCE CANYON   CLEAR     61  53  75 NW6       30.41R
CEDAR CITY     CLEAR     70  58  65 SE8       30.24S
MILFORD        PTCLDY    72  54  53 NW8       30.20R
ST GEORGE      CLOUDY    84  65  52 CALM      30.04R
HANKSVILLE     PTCLDY    79  61  53 CALM      30.15R
BLANDING       PTCLDY    65  55  69 NW6       30.29F

$$

REGIONAL REPORTS     COLORADO/ARIZONA

CITY           SKY/WX    TMP DP  RH WIND       PRES   REMARKS
CRAIG, CO      PTCLDY    63  58  83 E3        30.29R
GRAND JUNCTION CLEAR     78  56  46 N6        30.14R
RIFLE, CO      MOCLDY    74  60  61 CALM      30.21R
MONTROSE, CO   CLEAR     72  59  63 SE14      30.25R
CORTEZ, CO     CLEAR     68  57  68 NE3       30.23R
COLORADO CITY    N/A     73  64  73 CALM      30.22R
PAGE, AZ       PTCLDY    84  56  38 W5        30.10S
GRAND CANYON   CLEAR     63  57  81 CALM      30.32S
KINGMAN, AZ    CLEAR     79  68  69 S5        30.08R
FLAGSTAFF, AZ  CLEAR     62  58  86 CALM      30.36R

$$

REGIONAL REPORTS    NEVADA/IDAHO/WYOMING

CITY           SKY/WX    TMP DP  RH WIND       PRES   REMARKS
LAS VEGAS, NV  MOCLDY    94  62  34 E14       29.95R HX  94
ELY, NY          N/A    N/A N/A N/A MISG      30.28F
ELKO, NV       PTCLDY    72  50  45 NE9G23    30.18R
POCATELLO, ID  MOCLDY    67  55  65 NE13      30.20R
BURLEY, ID     MOCLDY    67  52  58 S8        30.13S
FORT BRIDGER,    N/A     65  53  65 SW3       30.36R
EVANSTON, WY   CLOUDY    65  52  62 NW5       30.35R
ROCK SPRINGS,  CLOUDY    63  56  78 S6        30.31F
KEMMERER, WY     N/A     61  50  67 CALM      30.36R

$$




USA.gov is the U.S. government's official web portal to all federal, state and local government web resources and services.